When you browse on this site, cookies collect data to enhance your experience and personalize the content and advertising you see.
Visit our Privacy Policy to learn more. By continuing to use the site, you agree to this use of cookies and data.
  • en Belgique
  • Liste des pays
  • À 7 jours
  • Température de l'eau
  • Carte météo
  • Widgets météo
  • user-avatar
    Se connecter

    Météo par heure à Tiranё

    Ce jour, 20 Octobre, Dimanche

    Heure Température Précipitation Vent Pression Humidité
    00:00 +19°C° 0 mm 1 m/s 757 mmHg 76%
    01:00 +18°C° 0 mm 2 m/s 757 mmHg 75%
    02:00 +17°C° 0 mm 2 m/s 757 mmHg 75%
    03:00 +18°C° 0 mm 1 m/s 757 mmHg 75%
    04:00 +18°C° 0 mm 1 m/s 757 mmHg 75%
    05:00 +18°C° 0 mm 1 m/s 757 mmHg 73%
    06:00 +18°C° 0 mm 2 m/s 757 mmHg 71%
    07:00 +18°C° 0 mm 2 m/s 757 mmHg 69%
    08:00 +21°C° 0 mm 1 m/s 757 mmHg 63%
    09:00 +23°C° 0 mm 1 m/s 757 mmHg 56%
    10:00 +25°C° 0 mm 1 m/s 758 mmHg 49%
    11:00 +26°C° 0 mm 1 m/s 757 mmHg 47%
    12:00 +27°C° 0 mm 2 m/s 757 mmHg 44%
    13:00 +27°C° 0 mm 2 m/s 757 mmHg 42%
    14:00 +26°C° 0 mm 2 m/s 757 mmHg 48%
    15:00 +25°C° 0 mm 2 m/s 757 mmHg 54%
    16:00 +24°C° 0 mm 2 m/s 757 mmHg 60%
    17:00 +23°C° 0 mm 1 m/s 757 mmHg 65%
    18:00 +21°C° 0 mm 1 m/s 757 mmHg 70%
    19:00 +20°C° 0 mm 1 m/s 757 mmHg 76%
    20:00 +20°C° 0 mm 1 m/s 757 mmHg 76%
    21:00 +20°C° 0 mm 1 m/s 758 mmHg 76%
    22:00 +19°C° 0 mm 1 m/s 758 mmHg 77%
    23:00 +19°C° 0 mm 1 m/s 758 mmHg 77%

    Demain, 21 Octobre, Lundi

    Heure Température Précipitation Vent Pression Humidité
    00:00 +19°C° 0 mm 1 m/s 758 mmHg 77%
    01:00 +19°C° 0 mm 1 m/s 758 mmHg 78%
    02:00 +19°C° 0 mm 1 m/s 758 mmHg 77%
    03:00 +18°C° 0 mm 1 m/s 758 mmHg 77%
    04:00 +18°C° 0 mm 1 m/s 758 mmHg 77%
    05:00 +19°C° 0 mm 1 m/s 758 mmHg 74%
    06:00 +19°C° 0 mm 1 m/s 758 mmHg 71%
    07:00 +20°C° 0 mm 1 m/s 758 mmHg 68%
    08:00 +22°C° 0 mm 1 m/s 758 mmHg 60%
    09:00 +24°C° 0 mm 1 m/s 758 mmHg 53%
    10:00 +26°C° 0 mm 2 m/s 758 mmHg 46%
    11:00 +27°C° 0 mm 2 m/s 758 mmHg 44%
    12:00 +27°C° 0 mm 3 m/s 758 mmHg 42%
    13:00 +28°C° 0 mm 3 m/s 757 mmHg 39%
    14:00 +27°C° 0 mm 4 m/s 757 mmHg 43%
    15:00 +26°C° 0 mm 4 m/s 757 mmHg 46%
    16:00 +25°C° 0 mm 4 m/s 757 mmHg 50%
    17:00 +22°C° 0 mm 3 m/s 757 mmHg 55%
    18:00 +21°C° 0 mm 3 m/s 757 mmHg 61%
    19:00 +19°C° 0 mm 2 m/s 758 mmHg 66%
    20:00 +19°C° 0 mm 2 m/s 758 mmHg 66%
    21:00 +19°C° 0 mm 2 m/s 758 mmHg 66%
    22:00 +20°C° 0 mm 1 m/s 758 mmHg 66%
    23:00 +19°C° 0 mm 1 m/s 758 mmHg 65%

    Après-demain, 22 Octobre, Mardi

    Heure Température Précipitation Vent Pression Humidité
    00:00 +19°C° 0 mm 1 m/s 758 mmHg 65%
    01:00 +19°C° 0 mm 1 m/s 757 mmHg 64%
    02:00 +19°C° 0 mm 1 m/s 757 mmHg 63%
    03:00 +19°C° 0 mm 1 m/s 757 mmHg 62%
    04:00 +18°C° 0 mm 2 m/s 757 mmHg 61%
    05:00 +18°C° 0 mm 2 m/s 757 mmHg 59%
    06:00 +20°C° 0 mm 1 m/s 757 mmHg 56%
    07:00 +20°C° 0 mm 1 m/s 757 mmHg 54%
    08:00 +21°C° 0 mm 2 m/s 757 mmHg 47%
    09:00 +25°C° 0 mm 2 m/s 757 mmHg 41%
    10:00 +27°C° 0 mm 2 m/s 757 mmHg 34%
    11:00 +28°C° 0 mm 2 m/s 757 mmHg 34%
    12:00 +29°C° 0 mm 3 m/s 757 mmHg 33%
    13:00 +30°C° 0 mm 3 m/s 756 mmHg 32%
    14:00 +28°C° 0 mm 3 m/s 756 mmHg 38%
    15:00 +27°C° 0 mm 3 m/s 756 mmHg 43%
    16:00 +26°C° 0 mm 3 m/s 756 mmHg 48%
    17:00 +24°C° 0 mm 3 m/s 756 mmHg 53%
    18:00 +23°C° 0 mm 2 m/s 756 mmHg 57%
    19:00 +21°C° 0 mm 1 m/s 756 mmHg 62%
    20:00 +21°C° 0 mm 1 m/s 757 mmHg 60%
    21:00 +21°C° 0 mm 1 m/s 757 mmHg 59%
    22:00 +21°C° 0 mm 1 m/s 757 mmHg 57%
    23:00 +20°C° 0 mm 1 m/s 757 mmHg 55%

    23 Octobre, Mercredi

    Heure Température Précipitation Vent Pression Humidité
    00:00 +20°C° 0 mm 1 m/s 757 mmHg 52%
    01:00 +20°C° 0 mm 1 m/s 756 mmHg 50%
    02:00 +20°C° 0 mm 1 m/s 756 mmHg 49%
    03:00 +19°C° 0 mm 1 m/s 756 mmHg 48%
    04:00 +19°C° 0 mm 1 m/s 756 mmHg 47%
    05:00 +19°C° 0 mm 1 m/s 756 mmHg 47%
    06:00 +20°C° 0 mm 1 m/s 756 mmHg 46%
    07:00 +20°C° 0 mm 1 m/s 756 mmHg 46%
    08:00 +23°C° 0 mm 1 m/s 756 mmHg 40%
    09:00 +25°C° 0 mm 1 m/s 756 mmHg 35%
    10:00 +28°C° 0 mm 1 m/s 756 mmHg 29%
    11:00 +28°C° 0 mm 1 m/s 755 mmHg 29%
    12:00 +29°C° 0 mm 2 m/s 755 mmHg 28%
    13:00 +30°C° 0 mm 2 m/s 755 mmHg 27%
    14:00 +28°C° 0 mm 2 m/s 755 mmHg 33%
    15:00 +27°C° 0 mm 3 m/s 754 mmHg 39%
    16:00 +25°C° 0 mm 3 m/s 754 mmHg 45%
    17:00 +24°C° 0 mm 2 m/s 754 mmHg 48%
    18:00 +23°C° 0 mm 2 m/s 754 mmHg 51%
    19:00 +21°C° 0 mm 1 m/s 755 mmHg 54%
    20:00 +21°C° 0 mm 1 m/s 755 mmHg 52%
    21:00 +21°C° 0 mm 1 m/s 755 mmHg 51%
    22:00 +21°C° 0 mm 1 m/s 755 mmHg 50%
    23:00 +20°C° 0 mm 1 m/s 755 mmHg 48%

    24 Octobre, Jeudi

    Heure Température Précipitation Vent Pression Humidité
    00:00 +20°C° 0 mm 1 m/s 755 mmHg 46%
    01:00 +20°C° 0 mm 1 m/s 755 mmHg 45%
    02:00 +19°C° 0 mm 1 m/s 755 mmHg 43%
    03:00 +19°C° 0 mm 1 m/s 754 mmHg 42%
    04:00 +18°C° 0 mm 2 m/s 754 mmHg 41%
    05:00 +18°C° 0 mm 2 m/s 754 mmHg 41%
    06:00 +18°C° 0 mm 2 m/s 754 mmHg 41%
    07:00 +19°C° 0 mm 2 m/s 754 mmHg 40%
    08:00 +21°C° 0 mm 2 m/s 754 mmHg 35%
    09:00 +25°C° 0 mm 2 m/s 754 mmHg 30%
    10:00 +27°C° 0 mm 1 m/s 754 mmHg 25%
    11:00 +28°C° 0 mm 2 m/s 754 mmHg 26%
    12:00 +28°C° 0 mm 3 m/s 753 mmHg 26%
    13:00 +29°C° 0 mm 3 m/s 753 mmHg 27%
    14:00 +27°C° 0 mm 3 m/s 753 mmHg 35%
    15:00 +26°C° 0 mm 2 m/s 752 mmHg 44%
    16:00 +25°C° 0 mm 2 m/s 752 mmHg 53%
    17:00 +23°C° 0 mm 2 m/s 752 mmHg 59%
    18:00 +21°C° 0 mm 2 m/s 752 mmHg 65%
    19:00 +19°C° 0 mm 2 m/s 753 mmHg 70%
    20:00 +19°C° 0 mm 2 m/s 753 mmHg 68%
    21:00 +19°C° 0 mm 2 m/s 753 mmHg 66%
    22:00 +18°C° 0 mm 2 m/s 753 mmHg 64%
    23:00 +18°C° 0 mm 2 m/s 753 mmHg 61%

    25 Octobre, Vendredi

    Heure Température Précipitation Vent Pression Humidité
    00:00 +18°C° 0 mm 2 m/s 753 mmHg 58%
    01:00 +18°C° 0 mm 1 m/s 753 mmHg 55%
    02:00 +17°C° 0 mm 2 m/s 752 mmHg 52%
    03:00 +17°C° 0 mm 2 m/s 752 mmHg 48%
    04:00 +17°C° 0 mm 2 m/s 752 mmHg 45%
    05:00 +17°C° 0 mm 2 m/s 752 mmHg 43%
    06:00 +17°C° 0 mm 2 m/s 752 mmHg 41%
    07:00 +17°C° 0 mm 2 m/s 752 mmHg 39%
    08:00 +20°C° 0 mm 2 m/s 752 mmHg 35%
    09:00 +23°C° 0 mm 2 m/s 752 mmHg 31%
    10:00 +25°C° 0 mm 2 m/s 752 mmHg 27%
    11:00 +26°C° 0 mm 2 m/s 752 mmHg 26%
    12:00 +27°C° 0 mm 3 m/s 752 mmHg 25%
    13:00 +28°C° 0 mm 3 m/s 751 mmHg 24%
    14:00 +26°C° 0 mm 3 m/s 751 mmHg 32%
    15:00 +25°C° 0 mm 2 m/s 751 mmHg 39%
    16:00 +24°C° 0 mm 2 m/s 751 mmHg 47%
    17:00 +21°C° 0 mm 2 m/s 751 mmHg 53%
    18:00 +20°C° 0 mm 2 m/s 751 mmHg 58%
    19:00 +18°C° 0 mm 2 m/s 752 mmHg 63%
    20:00 +18°C° 0 mm 2 m/s 752 mmHg 62%
    21:00 +18°C° 0 mm 2 m/s 752 mmHg 60%
    22:00 +18°C° 0 mm 2 m/s 752 mmHg 59%
    23:00 +18°C° 0 mm 2 m/s 752 mmHg 55%
    Voir plus